Date,TemperatureHighF,TemperatureAvgF,TemperatureLowF,DewpointHighF,DewpointAvgF,DewpointLowF,HumidityHigh,HumidityAvg,HumidityLow,PressureMaxIn,PressureMinIn,WindSpeedMaxMPH,WindSpeedAvgMPH,GustSpeedMaxMPH,PrecipitationSumIn
2013-2-1,26.7,22.9,17.6,20.1,12.1,6.4,86,63,46,30.30,29.77,27,8,27,0.00
2013-2-2,25.1,19.1,13.9,18.2,10.7,5.3,87,70,52,30.31,30.02,21,4,21,0.00
2013-2-3,28.7,24.0,19.4,25.1,19.7,12.6,92,84,67,30.02,29.79,27,2,27,0.00
2013-2-4,28.4,24.0,19.6,21.4,14.2,8.3,89,66,53,30.03,29.92,21,4,21,0.00
2013-2-5,31.0,27.4,23.8,27.8,24.4,21.1,95,89,79,29.95,29.85,6,0,6,0.00
2013-2-6,38.6,29.7,21.1,28.3,21.3,13.4,96,73,39,30.37,29.92,16,2,16,0.00
2013-2-7,37.2,26.8,17.1,21.9,17.3,13.4,86,69,52,30.46,30.22,12,2,12,0.00
2013-2-8,37.3,33.0,26.1,34.2,29.4,19.7,97,87,66,30.22,29.78,22,3,22,0.04
2013-2-9,32.4,25.1,17.5,19.7,16.3,13.8,87,70,53,30.43,29.97,22,4,22,0.00
2013-2-10,36.5,24.6,10.0,23.2,15.6,7.4,90,71,46,30.50,30.18,11,2,11,0.00
2013-2-11,42.6,36.8,33.3,38.1,28.6,18.6,97,74,48,30.18,29.66,22,3,22,0.01
2013-2-12,39.9,36.5,26.7,27.8,25.6,23.4,88,65,56,30.00,29.77,31,6,31,0.00
2013-2-13,41.7,30.9,20.9,32.4,26.3,19.5,96,84,59,29.96,29.69,9,1,9,0.00
2013-2-14,41.9,36.7,30.6,32.5,31.3,29.8,97,81,65,29.94,29.76,13,2,13,0.03
2013-2-15,47.1,37.9,30.6,33.5,29.8,26.4,95,74,47,30.00,29.90,21,3,21,0.00
2013-2-16,35.7,30.8,26.0,26.5,17.9,12.0,79,60,40,30.01,29.88,13,2,13,0.00
2013-2-17,28.0,22.7,18.2,16.2,9.8,2.9,73,58,36,30.18,29.86,33,5,33,0.00
2013-2-18,39.2,25.9,15.5,17.5,11.0,6.0,71,54,34,30.34,30.09,18,2,18,0.00
2013-2-19,37.2,32.9,25.9,34.6,25.2,17.0,94,74,52,30.09,29.66,25,3,25,0.13
2013-2-20,29.2,25.0,22.0,19.7,14.8,11.4,78,65,54,30.11,29.81,26,8,26,0.00
2013-2-21,36.9,27.5,22.7,18.6,16.2,13.5,73,63,45,30.38,30.07,26,5,26,0.00
2013-2-22,32.9,28.3,23.2,26.8,21.4,17.0,81,75,69,30.41,30.18,13,2,13,0.00
2013-2-23,36.7,34.7,32.8,35.3,32.4,26.7,98,92,78,30.19,29.86,11,1,11,0.01
2013-2-24,37.4,34.5,31.2,34.2,27.2,20.0,98,76,52,30.08,29.83,18,4,18,0.00
2013-2-25,48.7,34.7,25.8,28.7,24.3,21.2,85,67,39,30.22,30.08,15,3,15,0.00
2013-2-26,42.3,33.3,24.2,34.2,28.2,22.1,96,83,58,30.25,29.79,20,3,20,0.30
2013-2-27,40.1,37.3,34.0,38.1,36.1,33.0,98,95,92,29.79,29.61,8,1,8,0.88
2013-2-28,41.8,37.1,34.1,36.2,33.7,32.0,98,88,70,29.69,29.58,17,3,17,0.02